
Distance (Route):
Temperature : -4.1°C
Humidity : 74.9%
Pressure : 0hPa| Receiver | Frames | First received | Last received |
|---|---|---|---|
| LY3OO-11 | 283 | 2026-09-03 11:32:44 | 2026-09-03 13:16:01 |
| Receiver | Date | Latitude | Longitude | Direction | Speed | Altitude | Climb | Temperature | Humidity | Pressure | Voltage | Killtimer | Uptime | BKT | XDATA |
|---|---|---|---|---|---|---|---|---|---|---|---|---|---|---|---|
| LY3OO-11 | 2026-09-03 13:16:01 | 24.51905 | -36.73243 | 0° | 0km/h | 9m | 0.0m/s | -4.1°C | 74.9% | 0hPa | 0V | 00:00:00 | 00:00:00 | 00:00:00 | |
| LY3OO-11 | 2026-09-03 13:15:37 | 24.51905 | -36.73243 | 0° | 0km/h | 9m | 0.0m/s | -5.9°C | 78.3% | 0hPa | 0V | 00:00:00 | 00:00:00 | 00:00:00 | |
| LY3OO-11 | 2026-09-03 13:15:16 | 24.51905 | -36.73243 | 0° | 0km/h | 9m | 0.0m/s | -7.1°C | 63.3% | 0hPa | 0V | 00:00:00 | 00:00:00 | 00:00:00 | |
| LY3OO-11 | 2026-09-03 13:14:54 | 24.51905 | -36.73243 | 0° | 0km/h | 9m | 0.0m/s | -8.7°C | 61.7% | 0hPa | 0V | 00:00:00 | 00:00:00 | 00:00:00 | |
| LY3OO-11 | 2026-09-03 13:14:32 | 24.51905 | -36.73243 | 0° | 0km/h | 9m | 0.0m/s | -9.9°C | 66.1% | 0hPa | 0V | 00:00:00 | 00:00:00 | 00:00:00 | |
| LY3OO-11 | 2026-09-03 13:14:10 | 24.51905 | -36.73243 | 0° | 0km/h | 9m | 0.0m/s | -11.5°C | 50.2% | 0hPa | 0V | 00:00:00 | 00:00:00 | 00:00:00 | |
| LY3OO-11 | 2026-09-03 13:13:49 | 24.51905 | -36.73243 | 0° | 0km/h | 9m | 0.0m/s | -13.1°C | 43.9% | 0hPa | 0V | 00:00:00 | 00:00:00 | 00:00:00 | |
| LY3OO-11 | 2026-09-03 13:13:29 | 24.51905 | -36.73243 | 0° | 0km/h | 9m | 0.0m/s | -15.0°C | 48.0% | 0hPa | 0V | 00:00:00 | 00:00:00 | 00:00:00 | |
| LY3OO-11 | 2026-09-03 13:13:06 | 24.51905 | -36.73243 | 0° | 0km/h | 9m | 0.0m/s | -16.6°C | 18.5% | 0hPa | 0V | 00:00:00 | 00:00:00 | 00:00:00 | |
| LY3OO-11 | 2026-09-03 13:12:37 | 24.51905 | -36.73243 | 0° | 0km/h | 9m | 0.0m/s | -19.7°C | 41.4% | 0hPa | 0V | 00:00:00 | 00:00:00 | 00:00:00 | |
| LY3OO-11 | 2026-09-03 13:12:05 | 24.51905 | -36.73243 | 0° | 0km/h | 9m | 0.0m/s | -23.2°C | 43.1% | 0hPa | 0V | 00:00:00 | 00:00:00 | 00:00:00 | |
| LY3OO-11 | 2026-09-03 13:10:39 | 24.51905 | -36.73243 | 0° | 0km/h | 9m | 0.0m/s | -29.3°C | 8.5% | 0hPa | 0V | 00:00:00 | 00:00:00 | 00:00:00 | |
| LY3OO-11 | 2026-09-03 13:10:19 | 24.51905 | -36.73243 | 0° | 0km/h | 9m | 0.0m/s | -31.5°C | 9.7% | 0hPa | 0V | 00:00:00 | 00:00:00 | 00:00:00 | |
| LY3OO-11 | 2026-09-03 13:09:58 | 24.51905 | -36.73243 | 0° | 0km/h | 9m | 0.0m/s | -33.7°C | 11.7% | 0hPa | 0V | 00:00:00 | 00:00:00 | 00:00:00 | |
| LY3OO-11 | 2026-09-03 13:09:38 | 24.51905 | -36.73243 | 0° | 0km/h | 9m | 0.0m/s | -36.0°C | 15.1% | 0hPa | 0V | 00:00:00 | 00:00:00 | 00:00:00 | |
| LY3OO-11 | 2026-09-03 13:09:17 | 24.51905 | -36.73243 | 0° | 0km/h | 9m | 0.0m/s | -38.4°C | 20.7% | 0hPa | 0V | 00:00:00 | 00:00:00 | 00:00:00 | |
| LY3OO-11 | 2026-09-03 13:08:56 | 24.51905 | -36.73243 | 0° | 0km/h | 9m | 0.0m/s | -41.0°C | 37.1% | 0hPa | 0V | 00:00:00 | 00:00:00 | 00:00:00 | |
| LY3OO-11 | 2026-09-03 13:08:36 | 24.51905 | -36.73243 | 0° | 0km/h | 9m | 0.0m/s | -43.5°C | 44.5% | 0hPa | 0V | 00:00:00 | 00:00:00 | 00:00:00 | |
| LY3OO-11 | 2026-09-03 13:08:16 | 24.51905 | -36.73243 | 0° | 0km/h | 9m | 0.0m/s | -46.1°C | 59.0% | 0hPa | 0V | 00:00:00 | 00:00:00 | 00:00:00 | |
| LY3OO-11 | 2026-09-03 13:07:55 | 24.51905 | -36.73243 | 0° | 0km/h | 9m | 0.0m/s | -48.6°C | 69.9% | 0hPa | 0V | 00:00:00 | 00:00:00 | 00:00:00 | |
| LY3OO-11 | 2026-09-03 13:07:35 | 24.51905 | -36.73243 | 0° | 0km/h | 9m | 0.0m/s | -51.2°C | 71.3% | 0hPa | 0V | 00:00:00 | 00:00:00 | 00:00:00 | |
| LY3OO-11 | 2026-09-03 13:07:14 | 24.51905 | -36.73243 | 0° | 0km/h | 9m | 0.0m/s | -53.4°C | 52.6% | 0hPa | 0V | 00:00:00 | 00:00:00 | 00:00:00 | |
| LY3OO-11 | 2026-09-03 13:06:53 | 24.51905 | -36.73243 | 0° | 0km/h | 9m | 0.0m/s | -55.0°C | 50.8% | 0hPa | 0V | 00:00:00 | 00:00:00 | 00:00:00 | |
| LY3OO-11 | 2026-09-03 13:06:33 | 24.51905 | -36.73243 | 0° | 0km/h | 9m | 0.0m/s | -55.7°C | 39.3% | 0hPa | 0V | 00:00:00 | 00:00:00 | 00:00:00 | |
| LY3OO-11 | 2026-09-03 13:06:12 | 24.51905 | -36.73243 | 0° | 0km/h | 9m | 0.0m/s | -56.4°C | 33.0% | 0hPa | 0V | 00:00:00 | 00:00:00 | 00:00:00 | |
| LY3OO-11 | 2026-09-03 13:05:52 | 24.51905 | -36.73243 | 0° | 0km/h | 9m | 0.0m/s | -55.5°C | 18.6% | 0hPa | 0V | 00:00:00 | 00:00:00 | 00:00:00 | |
| LY3OO-11 | 2026-09-03 13:05:31 | 24.51905 | -36.73243 | 0° | 0km/h | 9m | 0.0m/s | -51.7°C | 6.9% | 0hPa | 0V | 00:00:00 | 00:00:00 | 00:00:00 | |
| LY3OO-11 | 2026-09-03 13:05:11 | 24.51905 | -36.73243 | 0° | 0km/h | 9m | 0.0m/s | -51.9°C | 6.0% | 0hPa | 0V | 00:00:00 | 00:00:00 | 00:00:00 | |
| LY3OO-11 | 2026-09-03 13:04:50 | 24.51905 | -36.73243 | 0° | 0km/h | 9m | 0.0m/s | -49.4°C | 4.5% | 0hPa | 0V | 00:00:00 | 00:00:00 | 00:00:00 | |
| LY3OO-11 | 2026-09-03 13:04:29 | 24.51905 | -36.73243 | 0° | 0km/h | 9m | 0.0m/s | -48.5°C | 3.8% | 0hPa | 0V | 00:00:00 | 00:00:00 | 00:00:00 | |
| LY3OO-11 | 2026-09-03 13:04:08 | 24.51905 | -36.73243 | 0° | 0km/h | 9m | 0.0m/s | -49.0°C | 3.8% | 0hPa | 0V | 00:00:00 | 00:00:00 | 00:00:00 | |
| LY3OO-11 | 2026-09-03 13:03:47 | 24.51905 | -36.73243 | 0° | 0km/h | 9m | 0.0m/s | -47.9°C | 3.5% | 0hPa | 0V | 00:00:00 | 00:00:00 | 00:00:00 | |
| LY3OO-11 | 2026-09-03 13:03:27 | 24.51905 | -36.73243 | 0° | 0km/h | 9m | 0.0m/s | -48.6°C | 3.5% | 0hPa | 0V | 00:00:00 | 00:00:00 | 00:00:00 | |
| LY3OO-11 | 2026-09-03 13:03:07 | 24.51905 | -36.73243 | 0° | 0km/h | 9m | 0.0m/s | -49.0°C | 3.7% | 0hPa | 0V | 00:00:00 | 00:00:00 | 00:00:00 | |
| LY3OO-11 | 2026-09-03 13:02:47 | 24.51905 | -36.73243 | 0° | 0km/h | 9m | 0.0m/s | -48.6°C | 3.6% | 0hPa | 0V | 00:00:00 | 00:00:00 | 00:00:00 | |
| LY3OO-11 | 2026-09-03 13:02:26 | 24.51905 | -36.73243 | 0° | 0km/h | 9m | 0.0m/s | -48.0°C | 3.4% | 0hPa | 0V | 00:00:00 | 00:00:00 | 00:00:00 | |
| LY3OO-11 | 2026-09-03 13:02:06 | 24.51905 | -36.73243 | 0° | 0km/h | 9m | 0.0m/s | -48.4°C | 3.4% | 0hPa | 0V | 00:00:00 | 00:00:00 | 00:00:00 | |
| LY3OO-11 | 2026-09-03 13:01:45 | 24.51905 | -36.73243 | 0° | 0km/h | 9m | 0.0m/s | -49.6°C | 3.6% | 0hPa | 0V | 00:00:00 | 00:00:00 | 00:00:00 | |
| LY3OO-11 | 2026-09-03 13:01:25 | 24.51905 | -36.73243 | 0° | 0km/h | 9m | 0.0m/s | -50.5°C | 3.9% | 0hPa | 0V | 00:00:00 | 00:00:00 | 00:00:00 | |
| LY3OO-11 | 2026-09-03 13:01:04 | 24.51905 | -36.73243 | 0° | 0km/h | 9m | 0.0m/s | -49.3°C | 3.7% | 0hPa | 0V | 00:00:00 | 00:00:00 | 00:00:00 | |
| LY3OO-11 | 2026-09-03 13:00:43 | 24.51905 | -36.73243 | 0° | 0km/h | 9m | 0.0m/s | -48.8°C | 3.6% | 0hPa | 0V | 00:00:00 | 00:00:00 | 00:00:00 | |
| LY3OO-11 | 2026-09-03 13:00:22 | 24.51905 | -36.73243 | 0° | 0km/h | 9m | 0.0m/s | -48.9°C | 3.5% | 0hPa | 0V | 00:00:00 | 00:00:00 | 00:00:00 | |
| LY3OO-11 | 2026-09-03 12:59:41 | 24.51905 | -36.73243 | 0° | 0km/h | 9m | 0.0m/s | -49.2°C | 3.5% | 0hPa | 0V | 00:00:00 | 00:00:00 | 00:00:00 | |
| LY3OO-11 | 2026-09-03 12:59:21 | 24.51905 | -36.73243 | 0° | 0km/h | 9m | 0.0m/s | -50.2°C | 3.7% | 0hPa | 0V | 00:00:00 | 00:00:00 | 00:00:00 | |
| LY3OO-11 | 2026-09-03 12:59:00 | 24.51905 | -36.73243 | 0° | 0km/h | 9m | 0.0m/s | -51.2°C | 4.1% | 0hPa | 0V | 00:00:00 | 00:00:00 | 00:00:00 | |
| LY3OO-11 | 2026-09-03 12:58:40 | 24.51905 | -36.73243 | 0° | 0km/h | 9m | 0.0m/s | -50.6°C | 4.0% | 0hPa | 0V | 00:00:00 | 00:00:00 | 00:00:00 | |
| LY3OO-11 | 2026-09-03 12:58:19 | 24.51905 | -36.73243 | 0° | 0km/h | 9m | 0.0m/s | -49.9°C | 3.9% | 0hPa | 0V | 00:00:00 | 00:00:00 | 00:00:00 | |
| LY3OO-11 | 2026-09-03 12:57:59 | 24.51905 | -36.73243 | 0° | 0km/h | 9m | 0.0m/s | -48.6°C | 3.5% | 0hPa | 0V | 00:00:00 | 00:00:00 | 00:00:00 | |
| LY3OO-11 | 2026-09-03 12:57:38 | 24.51905 | -36.73243 | 0° | 0km/h | 9m | 0.0m/s | -48.4°C | 3.3% | 0hPa | 0V | 00:00:00 | 00:00:00 | 00:00:00 | |
| LY3OO-11 | 2026-09-03 12:57:18 | 24.51905 | -36.73243 | 0° | 0km/h | 9m | 0.0m/s | -50.3°C | 3.7% | 0hPa | 0V | 00:00:00 | 00:00:00 | 00:00:00 | |
| LY3OO-11 | 2026-09-03 12:56:58 | 24.51905 | -36.73243 | 0° | 0km/h | 9m | 0.0m/s | -50.5°C | 3.8% | 0hPa | 0V | 00:00:00 | 00:00:00 | 00:00:00 | |
| LY3OO-11 | 2026-09-03 12:56:38 | 24.51905 | -36.73243 | 0° | 0km/h | 9m | 0.0m/s | -50.6°C | 3.9% | 0hPa | 0V | 00:00:00 | 00:00:00 | 00:00:00 | |
| LY3OO-11 | 2026-09-03 12:56:16 | 24.51905 | -36.73243 | 0° | 0km/h | 9m | 0.0m/s | -51.1°C | 4.0% | 0hPa | 0V | 00:00:00 | 00:00:00 | 00:00:00 | |
| LY3OO-11 | 2026-09-03 12:55:56 | 24.51905 | -36.73243 | 0° | 0km/h | 9m | 0.0m/s | -51.0°C | 3.9% | 0hPa | 0V | 00:00:00 | 00:00:00 | 00:00:00 | |
| LY3OO-11 | 2026-09-03 12:55:35 | 24.51905 | -36.73243 | 0° | 0km/h | 9m | 0.0m/s | -51.1°C | 3.9% | 0hPa | 0V | 00:00:00 | 00:00:00 | 00:00:00 | |
| LY3OO-11 | 2026-09-03 12:55:16 | 24.51905 | -36.73243 | 0° | 0km/h | 9m | 0.0m/s | -51.5°C | 4.2% | 0hPa | 0V | 00:00:00 | 00:00:00 | 00:00:00 | |
| LY3OO-11 | 2026-09-03 12:54:54 | 24.51905 | -36.73243 | 0° | 0km/h | 9m | 0.0m/s | -50.1°C | 3.8% | 0hPa | 0V | 00:00:00 | 00:00:00 | 00:00:00 | |
| LY3OO-11 | 2026-09-03 12:54:34 | 24.51905 | -36.73243 | 0° | 0km/h | 9m | 0.0m/s | -50.5°C | 3.9% | 0hPa | 0V | 00:00:00 | 00:00:00 | 00:00:00 | |
| LY3OO-11 | 2026-09-03 12:54:14 | 24.51905 | -36.73243 | 0° | 0km/h | 9m | 0.0m/s | -50.5°C | 3.8% | 0hPa | 0V | 00:00:00 | 00:00:00 | 00:00:00 | |
| LY3OO-11 | 2026-09-03 12:53:53 | 24.51905 | -36.73243 | 0° | 0km/h | 9m | 0.0m/s | -50.7°C | 3.9% | 0hPa | 0V | 00:00:00 | 00:00:00 | 00:00:00 | |
| LY3OO-11 | 2026-09-03 12:53:33 | 24.51905 | -36.73243 | 0° | 0km/h | 9m | 0.0m/s | -50.2°C | 3.9% | 0hPa | 0V | 00:00:00 | 00:00:00 | 00:00:00 | |
| LY3OO-11 | 2026-09-03 12:53:13 | 24.51905 | -36.73243 | 0° | 0km/h | 9m | 0.0m/s | -50.1°C | 4.0% | 0hPa | 0V | 00:00:00 | 00:00:00 | 00:00:00 | |
| LY3OO-11 | 2026-09-03 12:52:53 | 24.51905 | -36.73243 | 0° | 0km/h | 9m | 0.0m/s | -49.4°C | 3.8% | 0hPa | 0V | 00:00:00 | 00:00:00 | 00:00:00 | |
| LY3OO-11 | 2026-09-03 12:52:32 | 24.51905 | -36.73243 | 0° | 0km/h | 9m | 0.0m/s | -49.3°C | 3.8% | 0hPa | 0V | 00:00:00 | 00:00:00 | 00:00:00 | |
| LY3OO-11 | 2026-09-03 12:52:12 | 24.51905 | -36.73243 | 0° | 0km/h | 9m | 0.0m/s | -48.9°C | 3.9% | 0hPa | 0V | 00:00:00 | 00:00:00 | 00:00:00 | |
| LY3OO-11 | 2026-09-03 12:51:52 | 24.51905 | -36.73243 | 0° | 0km/h | 9m | 0.0m/s | -47.6°C | 3.6% | 0hPa | 0V | 00:00:00 | 00:00:00 | 00:00:00 | |
| LY3OO-11 | 2026-09-03 12:51:31 | 24.51905 | -36.73243 | 0° | 0km/h | 9m | 0.0m/s | -47.3°C | 3.7% | 0hPa | 0V | 00:00:00 | 00:00:00 | 00:00:00 | |
| LY3OO-11 | 2026-09-03 12:51:11 | 24.51905 | -36.73243 | 0° | 0km/h | 9m | 0.0m/s | -46.4°C | 3.3% | 0hPa | 0V | 00:00:00 | 00:00:00 | 00:00:00 | |
| LY3OO-11 | 2026-09-03 12:50:50 | 24.51905 | -36.73243 | 0° | 0km/h | 9m | 0.0m/s | -47.0°C | 3.4% | 0hPa | 0V | 00:00:00 | 00:00:00 | 00:00:00 | |
| LY3OO-11 | 2026-09-03 12:50:07 | 24.51905 | -36.73243 | 0° | 0km/h | 9m | 0.0m/s | -46.3°C | 3.4% | 0hPa | 0V | 00:00:00 | 00:00:00 | 00:00:00 | |
| LY3OO-11 | 2026-09-03 12:49:47 | 24.51905 | -36.73243 | 0° | 0km/h | 9m | 0.0m/s | -46.5°C | 3.4% | 0hPa | 0V | 00:00:00 | 00:00:00 | 00:00:00 | |
| LY3OO-11 | 2026-09-03 12:49:27 | 24.51905 | -36.73243 | 0° | 0km/h | 9m | 0.0m/s | -46.7°C | 3.4% | 0hPa | 0V | 00:00:00 | 00:00:00 | 00:00:00 | |
| LY3OO-11 | 2026-09-03 12:49:06 | 24.51905 | -36.73243 | 0° | 0km/h | 9m | 0.0m/s | -46.7°C | 3.4% | 0hPa | 0V | 00:00:00 | 00:00:00 | 00:00:00 | |
| LY3OO-11 | 2026-09-03 12:48:45 | 24.51905 | -36.73243 | 0° | 0km/h | 9m | 0.0m/s | -47.2°C | 3.5% | 0hPa | 0V | 00:00:00 | 00:00:00 | 00:00:00 | |
| LY3OO-11 | 2026-09-03 12:48:24 | 24.51905 | -36.73243 | 0° | 0km/h | 9m | 0.0m/s | -47.6°C | 3.5% | 0hPa | 0V | 00:00:00 | 00:00:00 | 00:00:00 | |
| LY3OO-11 | 2026-09-03 12:48:03 | 24.51905 | -36.73243 | 0° | 0km/h | 9m | 0.0m/s | -47.6°C | 3.5% | 0hPa | 0V | 00:00:00 | 00:00:00 | 00:00:00 | |
| LY3OO-11 | 2026-09-03 12:47:42 | 24.51905 | -36.73243 | 0° | 0km/h | 9m | 0.0m/s | -47.5°C | 3.5% | 0hPa | 0V | 00:00:00 | 00:00:00 | 00:00:00 | |
| LY3OO-11 | 2026-09-03 12:47:22 | 24.51905 | -36.73243 | 0° | 0km/h | 9m | 0.0m/s | -47.4°C | 3.4% | 0hPa | 0V | 00:00:00 | 00:00:00 | 00:00:00 | |
| LY3OO-11 | 2026-09-03 12:47:01 | 24.51905 | -36.73243 | 0° | 0km/h | 9m | 0.0m/s | -47.7°C | 3.5% | 0hPa | 0V | 00:00:00 | 00:00:00 | 00:00:00 | |
| LY3OO-11 | 2026-09-03 12:46:41 | 24.51905 | -36.73243 | 0° | 0km/h | 9m | 0.0m/s | -47.8°C | 3.5% | 0hPa | 0V | 00:00:00 | 00:00:00 | 00:00:00 | |
| LY3OO-11 | 2026-09-03 12:46:21 | 24.51905 | -36.73243 | 0° | 0km/h | 9m | 0.0m/s | -48.0°C | 3.6% | 0hPa | 0V | 00:00:00 | 00:00:00 | 00:00:00 | |
| LY3OO-11 | 2026-09-03 12:46:01 | 24.51905 | -36.73243 | 0° | 0km/h | 9m | 0.0m/s | -48.5°C | 3.5% | 0hPa | 0V | 00:00:00 | 00:00:00 | 00:00:00 | |
| LY3OO-11 | 2026-09-03 12:45:41 | 24.51905 | -36.73243 | 0° | 0km/h | 9m | 0.0m/s | -49.0°C | 3.8% | 0hPa | 0V | 00:00:00 | 00:00:00 | 00:00:00 | |
| LY3OO-11 | 2026-09-03 12:45:21 | 24.51905 | -36.73243 | 0° | 0km/h | 9m | 0.0m/s | -48.7°C | 3.7% | 0hPa | 0V | 00:00:00 | 00:00:00 | 00:00:00 | |
| LY3OO-11 | 2026-09-03 12:45:01 | 24.51905 | -36.73243 | 0° | 0km/h | 9m | 0.0m/s | -48.5°C | 3.6% | 0hPa | 0V | 00:00:00 | 00:00:00 | 00:00:00 | |
| LY3OO-11 | 2026-09-03 12:44:40 | 24.51905 | -36.73243 | 0° | 0km/h | 9m | 0.0m/s | -48.8°C | 3.7% | 0hPa | 0V | 00:00:00 | 00:00:00 | 00:00:00 | |
| LY3OO-11 | 2026-09-03 12:44:20 | 24.51905 | -36.73243 | 0° | 0km/h | 9m | 0.0m/s | -49.1°C | 3.8% | 0hPa | 0V | 00:00:00 | 00:00:00 | 00:00:00 | |
| LY3OO-11 | 2026-09-03 12:44:00 | 24.51905 | -36.73243 | 0° | 0km/h | 9m | 0.0m/s | -49.0°C | 3.7% | 0hPa | 0V | 00:00:00 | 00:00:00 | 00:00:00 | |
| LY3OO-11 | 2026-09-03 12:43:38 | -18.11570 | -59.56682 | 0° | 0km/h | 272m | 0.0m/s | -49.0°C | 3.6% | 0hPa | 0V | 00:00:00 | 00:00:00 | 00:00:00 | |
| LY3OO-11 | 2026-09-03 12:43:17 | -18.11570 | -59.56682 | 0° | 0km/h | 272m | 0.0m/s | -49.2°C | 3.7% | 0hPa | 0V | 00:00:00 | 00:00:00 | 00:00:00 | |
| LY3OO-11 | 2026-09-03 12:42:57 | 54.69544 | 31.89962 | 0° | 0km/h | 783m | 0.0m/s | -49.5°C | 3.5% | 0hPa | 0V | 00:00:00 | 00:00:00 | 00:00:00 | |
| LY3OO-11 | 2026-09-03 12:42:37 | 54.69544 | 31.89962 | 0° | 0km/h | 783m | 0.0m/s | -49.7°C | 3.5% | 0hPa | 0V | 00:00:00 | 00:00:00 | 00:00:00 | |
| LY3OO-11 | 2026-09-03 12:42:16 | 54.69481 | 31.90110 | 307° | 106km/h | 841m | -14.5m/s | -50.3°C | 3.7% | 0hPa | 0V | 00:00:00 | 00:00:00 | 00:00:00 | |
| LY3OO-11 | 2026-09-03 12:41:55 | 54.69193 | 31.90875 | 294° | 97km/h | 935m | 0.4m/s | -49.9°C | 3.5% | 0hPa | 0V | 00:00:00 | 00:00:00 | 00:00:00 | |
| LY3OO-11 | 2026-09-03 12:41:35 | 54.69119 | 31.91731 | 260° | 111km/h | 955m | -0.9m/s | -50.0°C | 3.6% | 0hPa | 0V | 00:00:00 | 00:00:00 | 00:00:00 | |
| LY3OO-11 | 2026-09-03 12:41:15 | 54.69349 | 31.92534 | 229° | 104km/h | 894m | -0.0m/s | -50.2°C | 3.7% | 0hPa | 0V | 00:00:00 | 00:00:00 | 00:00:00 | |
| LY3OO-11 | 2026-09-03 12:40:54 | 54.69783 | 31.92953 | 200° | 91km/h | 978m | 3.8m/s | -49.9°C | 3.5% | 0hPa | 0V | 00:00:00 | 00:00:00 | 00:00:00 | |
| LY3OO-11 | 2026-09-03 12:40:33 | 54.70317 | 31.92934 | 164° | 100km/h | 968m | 0.1m/s | -49.9°C | 3.5% | 0hPa | 0V | 00:00:00 | 00:00:00 | 00:00:00 | |
| LY3OO-11 | 2026-09-03 12:40:13 | 54.70722 | 31.92456 | 130° | 100km/h | 986m | 0.6m/s | -50.3°C | 3.6% | 0hPa | 0V | 00:00:00 | 00:00:00 | 00:00:00 | |
| LY3OO-11 | 2026-09-03 12:39:52 | 54.70914 | 31.91642 | 98° | 97km/h | 988m | 1.0m/s | -50.1°C | 3.5% | 0hPa | 0V | 00:00:00 | 00:00:00 | 00:00:00 | |
| LY3OO-11 | 2026-09-03 12:39:31 | 54.70833 | 31.90757 | 64° | 95km/h | 978m | -2.6m/s | -50.3°C | 3.6% | 0hPa | 0V | 00:00:00 | 00:00:00 | 00:00:00 | |
| LY3OO-11 | 2026-09-03 12:38:02 | 54.69112 | 31.91415 | 271° | 104km/h | 932m | 0.6m/s | -50.3°C | 3.7% | 0hPa | 0V | 00:00:00 | 00:00:00 | 00:00:00 | |
| LY3OO-11 | 2026-09-03 12:37:37 | 54.69246 | 31.92184 | 241° | 99km/h | 955m | -0.6m/s | -50.2°C | 3.6% | 0hPa | 0V | 00:00:00 | 00:00:00 | 00:00:00 | |
| LY3OO-11 | 2026-09-03 12:37:15 | 54.69619 | 31.92854 | 205° | 99km/h | 981m | 1.6m/s | -50.0°C | 3.5% | 0hPa | 0V | 00:00:00 | 00:00:00 | 00:00:00 | |
| LY3OO-11 | 2026-09-03 12:36:55 | 54.70108 | 31.93027 | 175° | 97km/h | 968m | 1.6m/s | -50.3°C | 3.6% | 0hPa | 0V | 00:00:00 | 00:00:00 | 00:00:00 | |
| LY3OO-11 | 2026-09-03 12:36:35 | 54.70569 | 31.92703 | 144° | 102km/h | 963m | -0.1m/s | -50.4°C | 3.7% | 0hPa | 0V | 00:00:00 | 00:00:00 | 00:00:00 | |
| LY3OO-11 | 2026-09-03 12:36:14 | 54.70875 | 31.91987 | 109° | 99km/h | 968m | 2.7m/s | -50.0°C | 3.6% | 0hPa | 0V | 00:00:00 | 00:00:00 | 00:00:00 | |
| LY3OO-11 | 2026-09-03 12:35:54 | 54.70907 | 31.91127 | 68° | 93km/h | 981m | 2.3m/s | -50.1°C | 3.6% | 0hPa | 0V | 00:00:00 | 00:00:00 | 00:00:00 | |
| LY3OO-11 | 2026-09-03 12:35:33 | 54.70648 | 31.90321 | 45° | 100km/h | 977m | 2.8m/s | -50.2°C | 3.6% | 0hPa | 0V | 00:00:00 | 00:00:00 | 00:00:00 | |
| LY3OO-11 | 2026-09-03 12:35:12 | 54.70192 | 31.89917 | 12° | 99km/h | 996m | -0.0m/s | -50.9°C | 3.6% | 0hPa | 0V | 00:00:00 | 00:00:00 | 00:00:00 | |
| LY3OO-11 | 2026-09-03 12:34:52 | 54.69678 | 31.90020 | 340° | 100km/h | 971m | 2.1m/s | -51.1°C | 3.8% | 0hPa | 0V | 00:00:00 | 00:00:00 | 00:00:00 | |
| LY3OO-11 | 2026-09-03 12:34:31 | 54.69287 | 31.90565 | 306° | 102km/h | 956m | -2.2m/s | -51.2°C | 3.8% | 0hPa | 0V | 00:00:00 | 00:00:00 | 00:00:00 | |
| LY3OO-11 | 2026-09-03 12:34:10 | 54.69120 | 31.91414 | 274° | 99km/h | 967m | 1.0m/s | -51.3°C | 3.8% | 0hPa | 0V | 00:00:00 | 00:00:00 | 00:00:00 | |
| LY3OO-11 | 2026-09-03 12:33:50 | 54.69253 | 31.92275 | 239° | 100km/h | 967m | -0.8m/s | -51.4°C | 3.8% | 0hPa | 0V | 00:00:00 | 00:00:00 | 00:00:00 | |
| LY3OO-11 | 2026-09-03 12:33:30 | 54.69608 | 31.92860 | 208° | 97km/h | 974m | 0.6m/s | -51.3°C | 3.8% | 0hPa | 0V | 00:00:00 | 00:00:00 | 00:00:00 | |
| LY3OO-11 | 2026-09-03 12:32:49 | 54.70586 | 31.92681 | 143° | 99km/h | 973m | 1.6m/s | -51.3°C | 3.7% | 0hPa | 0V | 00:00:00 | 00:00:00 | 00:00:00 | |
| LY3OO-11 | 2026-09-03 12:32:27 | 54.70877 | 31.91964 | 109° | 99km/h | 943m | -0.6m/s | -51.8°C | 3.9% | 0hPa | 0V | 00:00:00 | 00:00:00 | 00:00:00 | |
| LY3OO-11 | 2026-09-03 12:32:07 | 54.70898 | 31.91087 | 77° | 99km/h | 986m | 0.1m/s | -51.9°C | 3.8% | 0hPa | 0V | 00:00:00 | 00:00:00 | 00:00:00 | |
| LY3OO-11 | 2026-09-03 12:31:26 | 30.60367 | -95.78373 | 0° | 0km/h | 103m | 0.0m/s | -51.3°C | 4.1% | 0hPa | 0V | 00:00:00 | 00:00:00 | 00:00:00 | |
| LY3OO-11 | 2026-09-03 12:31:06 | 30.60367 | -95.78373 | 0° | 0km/h | 103m | 0.0m/s | -51.0°C | 4.0% | 0hPa | 0V | 00:00:00 | 00:00:00 | 00:00:00 | |
| LY3OO-11 | 2026-09-03 12:30:46 | 30.60367 | -95.78373 | 0° | 0km/h | 103m | 0.0m/s | -50.8°C | 4.1% | 0hPa | 0V | 00:00:00 | 00:00:00 | 00:00:00 | |
| LY3OO-11 | 2026-09-03 12:30:26 | 30.60367 | -95.78373 | 0° | 0km/h | 103m | 0.0m/s | -50.3°C | 3.9% | 0hPa | 0V | 00:00:00 | 00:00:00 | 00:00:00 | |
| LY3OO-11 | 2026-09-03 12:30:05 | 30.60367 | -95.78373 | 0° | 0km/h | 103m | 0.0m/s | -50.2°C | 3.9% | 0hPa | 0V | 00:00:00 | 00:00:00 | 00:00:00 | |
| LY3OO-11 | 2026-09-03 12:28:43 | 52.73512 | 65.27534 | 0° | 0km/h | 105m | 0.0m/s | -50.8°C | 4.0% | 0hPa | 0V | 00:00:00 | 00:00:00 | 00:00:00 | |
| LY3OO-11 | 2026-09-03 12:28:20 | 54.76575 | 22.13697 | 0° | 0km/h | 156m | 0.0m/s | -51.1°C | 4.1% | 0hPa | 0V | 00:00:00 | 00:00:00 | 00:00:00 | |
| LY3OO-11 | 2026-09-03 12:28:00 | 54.76575 | 22.13697 | 0° | 0km/h | 156m | 0.0m/s | -50.9°C | 4.2% | 0hPa | 0V | 00:00:00 | 00:00:00 | 00:00:00 | |
| LY3OO-11 | 2026-09-03 12:27:38 | 54.76575 | 22.13697 | 0° | 0km/h | 156m | 0.0m/s | -50.2°C | 4.0% | 0hPa | 0V | 00:00:00 | 00:00:00 | 00:00:00 | |
| LY3OO-11 | 2026-09-03 12:27:18 | 54.76575 | 22.13697 | 0° | 0km/h | 156m | 0.0m/s | -49.5°C | 3.9% | 0hPa | 0V | 00:00:00 | 00:00:00 | 00:00:00 | |
| LY3OO-11 | 2026-09-03 12:26:57 | 49.23907 | 53.91920 | 0° | 0km/h | 48m | 0.0m/s | -48.8°C | 3.8% | 0hPa | 0V | 00:00:00 | 00:00:00 | 00:00:00 | |
| LY3OO-11 | 2026-09-03 12:26:15 | 54.73906 | 33.47215 | 0° | 0km/h | 211m | 0.0m/s | -48.3°C | 3.6% | 0hPa | 0V | 00:00:00 | 00:00:00 | 00:00:00 | |
| LY3OO-11 | 2026-09-03 12:25:55 | 54.73906 | 33.47215 | 0° | 0km/h | 211m | 0.0m/s | -48.6°C | 3.6% | 0hPa | 0V | 00:00:00 | 00:00:00 | 00:00:00 | |
| LY3OO-11 | 2026-09-03 12:25:34 | 54.79510 | 24.36952 | 0° | 0km/h | 18752m | 0.0m/s | -48.8°C | 1.2% | 0hPa | 0V | 00:00:00 | 00:00:00 | 00:00:00 | |
| LY3OO-11 | 2026-09-03 12:25:14 | 54.79510 | 24.36952 | 0° | 0km/h | 18752m | 0.0m/s | -49.8°C | 1.2% | 0hPa | 0V | 00:00:00 | 00:00:00 | 00:00:00 | |
| LY3OO-11 | 2026-09-03 12:24:53 | 54.79510 | 24.36952 | 0° | 0km/h | 18752m | 0.0m/s | -50.8°C | 1.3% | 0hPa | 0V | 00:00:00 | 00:00:00 | 00:00:00 | |
| LY3OO-11 | 2026-09-03 12:24:32 | 54.79510 | 24.36952 | 0° | 0km/h | 18752m | 0.0m/s | -50.5°C | 1.3% | 0hPa | 0V | 00:00:00 | 00:00:00 | 00:00:00 | |
| LY3OO-11 | 2026-09-03 12:24:12 | 54.79510 | 24.36952 | 0° | 0km/h | 18752m | 0.0m/s | -50.7°C | 1.3% | 0hPa | 0V | 00:00:00 | 00:00:00 | 00:00:00 | |
| LY3OO-11 | 2026-09-03 12:23:51 | 54.79484 | 24.36817 | 72° | 33km/h | 18683m | 6.9m/s | -50.7°C | 1.3% | 0hPa | 0V | 00:00:00 | 00:00:00 | 00:00:00 | |
| LY3OO-11 | 2026-09-03 12:23:30 | 54.79420 | 24.36496 | 84° | 37km/h | 18535m | 5.6m/s | -50.7°C | 1.3% | 0hPa | 0V | 00:00:00 | 00:00:00 | 00:00:00 | |
| LY3OO-11 | 2026-09-03 12:23:10 | 54.79371 | 24.36164 | 74° | 29km/h | 18411m | 6.7m/s | -51.2°C | 1.4% | 0hPa | 0V | 00:00:00 | 00:00:00 | 00:00:00 | |
| LY3OO-11 | 2026-09-03 12:22:50 | 54.79309 | 24.35920 | 77° | 26km/h | 18284m | 6.3m/s | -50.8°C | 1.3% | 0hPa | 0V | 00:00:00 | 00:00:00 | 00:00:00 | |
| LY3OO-11 | 2026-09-03 12:22:28 | 54.79282 | 24.35692 | 92° | 27km/h | 18153m | 5.9m/s | -51.0°C | 1.4% | 0hPa | 0V | 00:00:00 | 00:00:00 | 00:00:00 | |
| LY3OO-11 | 2026-09-03 12:22:07 | 54.79272 | 24.35472 | 91° | 18km/h | 18011m | 5.7m/s | -50.8°C | 1.4% | 0hPa | 0V | 00:00:00 | 00:00:00 | 00:00:00 | |
| LY3OO-11 | 2026-09-03 12:21:47 | 54.79290 | 24.35336 | 120° | 15km/h | 17900m | 6.0m/s | -50.6°C | 1.4% | 0hPa | 0V | 00:00:00 | 00:00:00 | 00:00:00 | |
| LY3OO-11 | 2026-09-03 12:21:27 | 54.79340 | 24.35171 | 132° | 29km/h | 17775m | 6.0m/s | -50.6°C | 1.4% | 0hPa | 0V | 00:00:00 | 00:00:00 | 00:00:00 | |
| LY3OO-11 | 2026-09-03 12:21:07 | 54.79399 | 24.34984 | 115° | 24km/h | 17661m | 5.7m/s | -49.8°C | 1.4% | 0hPa | 0V | 00:00:00 | 00:00:00 | 00:00:00 | |
| LY3OO-11 | 2026-09-03 12:20:46 | 54.79439 | 24.34807 | 122° | 26km/h | 17539m | 5.6m/s | -49.0°C | 1.3% | 0hPa | 0V | 00:00:00 | 00:00:00 | 00:00:00 | |
| LY3OO-11 | 2026-09-03 12:20:04 | 54.79559 | 24.34393 | 93° | 46km/h | 17283m | 5.8m/s | -48.5°C | 1.2% | 0hPa | 0V | 00:00:00 | 00:00:00 | 00:00:00 | |
| LY3OO-11 | 2026-09-03 12:19:44 | 54.79581 | 24.34064 | 88° | 42km/h | 17163m | 6.7m/s | -48.8°C | 1.3% | 0hPa | 0V | 00:00:00 | 00:00:00 | 00:00:00 | |
| LY3OO-11 | 2026-09-03 12:19:24 | 54.79582 | 24.33709 | 87° | 33km/h | 17036m | 6.4m/s | -48.3°C | 1.3% | 0hPa | 0V | 00:00:00 | 00:00:00 | 00:00:00 | |
| LY3OO-11 | 2026-09-03 12:19:04 | 54.79547 | 24.33418 | 84° | 33km/h | 16925m | 5.2m/s | -48.1°C | 1.2% | 0hPa | 0V | 00:00:00 | 00:00:00 | 00:00:00 | |
| LY3OO-11 | 2026-09-03 12:18:43 | 54.79517 | 24.33091 | 86° | 44km/h | 16818m | 5.5m/s | -48.2°C | 1.2% | 0hPa | 0V | 00:00:00 | 00:00:00 | 00:00:00 | |
| LY3OO-11 | 2026-09-03 12:18:22 | 54.79537 | 24.32777 | 94° | 31km/h | 16712m | 5.3m/s | -48.8°C | 1.3% | 0hPa | 0V | 00:00:00 | 00:00:00 | 00:00:00 | |
| LY3OO-11 | 2026-09-03 12:18:01 | 54.79561 | 24.32526 | 91° | 24km/h | 16594m | 6.4m/s | -48.9°C | 1.3% | 0hPa | 0V | 00:00:00 | 00:00:00 | 00:00:00 | |
| LY3OO-11 | 2026-09-03 12:17:42 | 54.79580 | 24.32357 | 109° | 15km/h | 16483m | 8.0m/s | -48.8°C | 1.3% | 0hPa | 0V | 00:00:00 | 00:00:00 | 00:00:00 | |
| LY3OO-11 | 2026-09-03 12:17:21 | 54.79637 | 24.32136 | 121° | 38km/h | 16356m | 6.7m/s | -49.0°C | 1.3% | 0hPa | 0V | 00:00:00 | 00:00:00 | 00:00:00 | |
| LY3OO-11 | 2026-09-03 12:17:00 | 54.79703 | 24.31799 | 102° | 44km/h | 16239m | 3.8m/s | -49.3°C | 1.4% | 0hPa | 0V | 00:00:00 | 00:00:00 | 00:00:00 | |
| LY3OO-11 | 2026-09-03 12:16:41 | 54.79717 | 24.31375 | 89° | 46km/h | 16129m | 5.6m/s | -49.1°C | 1.4% | 0hPa | 0V | 00:00:00 | 00:00:00 | 00:00:00 | |
| LY3OO-11 | 2026-09-03 12:16:20 | 54.79696 | 24.30973 | 91° | 44km/h | 16010m | 6.2m/s | -49.4°C | 1.5% | 0hPa | 0V | 00:00:00 | 00:00:00 | 00:00:00 | |
| LY3OO-11 | 2026-09-03 12:16:00 | 54.79701 | 24.30597 | 99° | 42km/h | 15887m | 5.6m/s | -49.2°C | 1.4% | 0hPa | 0V | 00:00:00 | 00:00:00 | 00:00:00 | |
| LY3OO-11 | 2026-09-03 12:15:40 | 54.79743 | 24.30194 | 95° | 49km/h | 15776m | 6.8m/s | -50.3°C | 1.5% | 0hPa | 0V | 00:00:00 | 00:00:00 | 00:00:00 | |
| LY3OO-11 | 2026-09-03 12:15:20 | 54.79779 | 24.29750 | 91° | 47km/h | 15671m | 5.4m/s | -50.4°C | 1.5% | 0hPa | 0V | 00:00:00 | 00:00:00 | 00:00:00 | |
| LY3OO-11 | 2026-09-03 12:15:00 | 54.79762 | 24.29347 | 96° | 46km/h | 15554m | 5.1m/s | -50.9°C | 1.6% | 0hPa | 0V | 00:00:00 | 00:00:00 | 00:00:00 | |
| LY3OO-11 | 2026-09-03 12:14:38 | 54.79751 | 24.29028 | 89° | 33km/h | 15433m | 7.2m/s | -50.9°C | 1.5% | 0hPa | 0V | 00:00:00 | 00:00:00 | 00:00:00 | |
| LY3OO-11 | 2026-09-03 12:14:18 | 54.79791 | 24.28704 | 99° | 40km/h | 15318m | 6.2m/s | -50.2°C | 1.5% | 0hPa | 0V | 00:00:00 | 00:00:00 | 00:00:00 | |
| LY3OO-11 | 2026-09-03 12:13:58 | 54.79869 | 24.28387 | 115° | 38km/h | 15201m | 6.1m/s | -49.6°C | 1.5% | 0hPa | 0V | 00:00:00 | 00:00:00 | 00:00:00 | |
| LY3OO-11 | 2026-09-03 12:13:37 | 54.79929 | 24.28056 | 99° | 37km/h | 15080m | 5.5m/s | -48.8°C | 1.4% | 0hPa | 0V | 00:00:00 | 00:00:00 | 00:00:00 | |
| LY3OO-11 | 2026-09-03 12:13:16 | 54.79947 | 24.27692 | 93° | 35km/h | 14958m | 5.6m/s | -48.8°C | 1.5% | 0hPa | 0V | 00:00:00 | 00:00:00 | 00:00:00 | |
| LY3OO-11 | 2026-09-03 12:12:57 | 54.79948 | 24.27351 | 95° | 46km/h | 14849m | 4.3m/s | -48.4°C | 1.4% | 0hPa | 0V | 00:00:00 | 00:00:00 | 00:00:00 | |
| LY3OO-11 | 2026-09-03 12:12:36 | 54.79924 | 24.26986 | 83° | 33km/h | 14729m | 5.9m/s | -48.3°C | 1.4% | 0hPa | 0V | 00:00:00 | 00:00:00 | 00:00:00 | |
| LY3OO-11 | 2026-09-03 12:12:16 | 54.79936 | 24.26667 | 98° | 42km/h | 14609m | 5.5m/s | -48.8°C | 1.5% | 0hPa | 0V | 00:00:00 | 00:00:00 | 00:00:00 | |
| LY3OO-11 | 2026-09-03 12:11:55 | 54.79979 | 24.26301 | 108° | 38km/h | 14498m | 6.0m/s | -48.7°C | 1.5% | 0hPa | 0V | 00:00:00 | 00:00:00 | 00:00:00 | |
| LY3OO-11 | 2026-09-03 12:11:34 | 54.80041 | 24.25955 | 103° | 44km/h | 14378m | 5.3m/s | -48.7°C | 1.5% | 0hPa | 0V | 00:00:00 | 00:00:00 | 00:00:00 | |
| LY3OO-11 | 2026-09-03 12:11:14 | 54.80128 | 24.25557 | 112° | 46km/h | 14264m | 5.7m/s | -48.8°C | 1.5% | 0hPa | 0V | 00:00:00 | 00:00:00 | 00:00:00 | |
| LY3OO-11 | 2026-09-03 12:10:33 | 54.80339 | 24.24748 | 116° | 55km/h | 14019m | 5.9m/s | -47.4°C | 1.4% | 0hPa | 0V | 00:00:00 | 00:00:00 | 00:00:00 | |
| LY3OO-11 | 2026-09-03 12:10:13 | 54.80452 | 24.24299 | 111° | 53km/h | 13899m | 4.6m/s | -47.3°C | 1.5% | 0hPa | 0V | 00:00:00 | 00:00:00 | 00:00:00 | |
| LY3OO-11 | 2026-09-03 12:09:31 | 54.80513 | 24.23258 | 87° | 64km/h | 13663m | 4.7m/s | -47.1°C | 1.4% | 0hPa | 0V | 00:00:00 | 00:00:00 | 00:00:00 | |
| LY3OO-11 | 2026-09-03 12:09:10 | 54.80491 | 24.22761 | 88° | 49km/h | 13549m | 7.9m/s | -47.7°C | 1.5% | 0hPa | 0V | 00:00:00 | 00:00:00 | 00:00:00 | |
| LY3OO-11 | 2026-09-03 12:08:49 | 54.80480 | 24.22380 | 98° | 44km/h | 13437m | 4.3m/s | -48.2°C | 1.6% | 0hPa | 0V | 00:00:00 | 00:00:00 | 00:00:00 | |
| LY3OO-11 | 2026-09-03 12:08:29 | 54.80546 | 24.22014 | 106° | 37km/h | 13320m | 5.3m/s | -48.2°C | 1.6% | 0hPa | 0V | 00:00:00 | 00:00:00 | 00:00:00 | |
| LY3OO-11 | 2026-09-03 12:08:07 | 54.80625 | 24.21640 | 114° | 44km/h | 13197m | 5.1m/s | -48.2°C | 1.7% | 0hPa | 0V | 00:00:00 | 00:00:00 | 00:00:00 | |
| LY3OO-11 | 2026-09-03 12:07:48 | 54.80676 | 24.21199 | 99° | 53km/h | 13089m | 3.4m/s | -48.3°C | 1.7% | 0hPa | 0V | 00:00:00 | 00:00:00 | 00:00:00 | |
| LY3OO-11 | 2026-09-03 12:07:26 | 54.80747 | 24.20720 | 110° | 49km/h | 12988m | 3.7m/s | -48.9°C | 1.7% | 0hPa | 0V | 00:00:00 | 00:00:00 | 00:00:00 | |
| LY3OO-11 | 2026-09-03 12:07:06 | 54.80806 | 24.20226 | 98° | 66km/h | 12882m | 6.5m/s | -48.7°C | 1.9% | 0hPa | 0V | 00:00:00 | 00:00:00 | 00:00:00 | |
| LY3OO-11 | 2026-09-03 12:06:45 | 54.80846 | 24.19734 | 100° | 46km/h | 12759m | 5.3m/s | -48.5°C | 1.8% | 0hPa | 0V | 00:00:00 | 00:00:00 | 00:00:00 | |
| LY3OO-11 | 2026-09-03 12:06:25 | 54.80862 | 24.19299 | 81° | 42km/h | 12647m | 5.1m/s | -49.1°C | 2.0% | 0hPa | 0V | 00:00:00 | 00:00:00 | 00:00:00 | |
| LY3OO-11 | 2026-09-03 12:06:04 | 54.80892 | 24.18907 | 131° | 47km/h | 12533m | 7.1m/s | -49.2°C | 2.2% | 0hPa | 0V | 00:00:00 | 00:00:00 | 00:00:00 | |
| LY3OO-11 | 2026-09-03 12:05:44 | 54.81013 | 24.18458 | 113° | 53km/h | 12399m | 11.6m/s | -48.8°C | 2.1% | 0hPa | 0V | 00:00:00 | 00:00:00 | 00:00:00 | |
| LY3OO-11 | 2026-09-03 12:05:24 | 54.81099 | 24.18116 | 113° | 49km/h | 12263m | 6.4m/s | -49.0°C | 2.3% | 0hPa | 0V | 00:00:00 | 00:00:00 | 00:00:00 | |
| LY3OO-11 | 2026-09-03 12:05:03 | 54.81181 | 24.17712 | 109° | 47km/h | 12131m | 5.4m/s | -48.9°C | 2.5% | 0hPa | 0V | 00:00:00 | 00:00:00 | 00:00:00 | |
| LY3OO-11 | 2026-09-03 12:04:43 | 54.81265 | 24.17242 | 104° | 49km/h | 12014m | 6.4m/s | -48.9°C | 2.7% | 0hPa | 0V | 00:00:00 | 00:00:00 | 00:00:00 | |
| LY3OO-11 | 2026-09-03 12:04:22 | 54.81325 | 24.16827 | 121° | 49km/h | 11906m | 5.0m/s | -50.0°C | 3.1% | 0hPa | 0V | 00:00:00 | 00:00:00 | 00:00:00 | |
| LY3OO-11 | 2026-09-03 12:04:02 | 54.81389 | 24.16452 | 115° | 40km/h | 11789m | 6.3m/s | -51.0°C | 3.7% | 0hPa | 0V | 00:00:00 | 00:00:00 | 00:00:00 | |
| LY3OO-11 | 2026-09-03 12:03:41 | 54.81467 | 24.16126 | 110° | 38km/h | 11678m | 5.2m/s | -51.6°C | 5.2% | 0hPa | 0V | 00:00:00 | 00:00:00 | 00:00:00 | |
| LY3OO-11 | 2026-09-03 12:03:21 | 54.81546 | 24.15765 | 119° | 47km/h | 11564m | 6.9m/s | -52.2°C | 9.4% | 0hPa | 0V | 00:00:00 | 00:00:00 | 00:00:00 | |
| LY3OO-11 | 2026-09-03 12:03:00 | 54.81687 | 24.15381 | 134° | 49km/h | 11444m | 5.6m/s | -54.3°C | 16.9% | 0hPa | 0V | 00:00:00 | 00:00:00 | 00:00:00 | |
| LY3OO-11 | 2026-09-03 12:02:40 | 54.81825 | 24.14903 | 112° | 64km/h | 11314m | 5.9m/s | -55.6°C | 24.1% | 0hPa | 0V | 00:00:00 | 00:00:00 | 00:00:00 | |
| LY3OO-11 | 2026-09-03 12:02:20 | 54.81919 | 24.14408 | 110° | 60km/h | 11194m | 8.0m/s | -56.1°C | 30.7% | 0hPa | 0V | 00:00:00 | 00:00:00 | 00:00:00 | |
| LY3OO-11 | 2026-09-03 12:01:59 | 54.82053 | 24.13980 | 120° | 55km/h | 11066m | 3.9m/s | -56.3°C | 35.3% | 0hPa | 0V | 00:00:00 | 00:00:00 | 00:00:00 | |
| LY3OO-11 | 2026-09-03 12:01:37 | 54.82219 | 24.13557 | 128° | 64km/h | 10951m | 4.9m/s | -55.9°C | 33.9% | 0hPa | 0V | 00:00:00 | 00:00:00 | 00:00:00 | |
| LY3OO-11 | 2026-09-03 12:01:16 | 54.82403 | 24.13144 | 121° | 57km/h | 10829m | 4.8m/s | -55.7°C | 35.2% | 0hPa | 0V | 00:00:00 | 00:00:00 | 00:00:00 | |
| LY3OO-11 | 2026-09-03 12:00:56 | 54.82587 | 24.12747 | 140° | 58km/h | 10731m | 4.6m/s | -55.6°C | 40.1% | 0hPa | 0V | 00:00:00 | 00:00:00 | 00:00:00 | |
| LY3OO-11 | 2026-09-03 12:00:36 | 54.82809 | 24.12386 | 138° | 62km/h | 10605m | 3.2m/s | -55.0°C | 38.8% | 0hPa | 0V | 00:00:00 | 00:00:00 | 00:00:00 | |
| LY3OO-11 | 2026-09-03 12:00:15 | 54.83052 | 24.11970 | 136° | 71km/h | 10518m | 3.1m/s | -55.0°C | 47.8% | 0hPa | 0V | 00:00:00 | 00:00:00 | 00:00:00 | |
| LY3OO-11 | 2026-09-03 11:59:53 | 54.83289 | 24.11543 | 135° | 62km/h | 10419m | 3.8m/s | -55.9°C | 53.5% | 0hPa | 0V | 00:00:00 | 00:00:00 | 00:00:00 | |
| LY3OO-11 | 2026-09-03 11:59:33 | 54.83448 | 24.11107 | 116° | 64km/h | 10314m | 3.6m/s | -55.6°C | 56.1% | 0hPa | 0V | 00:00:00 | 00:00:00 | 00:00:00 | |
| LY3OO-11 | 2026-09-03 11:59:12 | 54.83558 | 24.10618 | 117° | 55km/h | 10205m | 3.7m/s | -55.0°C | 61.5% | 0hPa | 0V | 00:00:00 | 00:00:00 | 00:00:00 | |
| LY3OO-11 | 2026-09-03 11:58:52 | 54.83709 | 24.10138 | 126° | 47km/h | 10085m | 2.9m/s | -54.7°C | 73.3% | 0hPa | 0V | 00:00:00 | 00:00:00 | 00:00:00 | |
| LY3OO-11 | 2026-09-03 11:58:30 | 54.83840 | 24.09683 | 117° | 66km/h | 9979m | 5.1m/s | -53.8°C | 71.1% | 0hPa | 0V | 00:00:00 | 00:00:00 | 00:00:00 | |
| LY3OO-11 | 2026-09-03 11:58:11 | 54.83966 | 24.09187 | 122° | 68km/h | 9877m | 4.6m/s | -53.0°C | 71.9% | 0hPa | 0V | 00:00:00 | 00:00:00 | 00:00:00 | |
| LY3OO-11 | 2026-09-03 11:57:50 | 54.84121 | 24.08651 | 113° | 58km/h | 9759m | 3.8m/s | -51.8°C | 62.0% | 0hPa | 0V | 00:00:00 | 00:00:00 | 00:00:00 | |
| LY3OO-11 | 2026-09-03 11:57:28 | 54.84268 | 24.08099 | 109° | 71km/h | 9648m | 5.5m/s | -50.7°C | 52.7% | 0hPa | 0V | 00:00:00 | 00:00:00 | 00:00:00 | |
| LY3OO-11 | 2026-09-03 11:57:08 | 54.84380 | 24.07527 | 117° | 73km/h | 9537m | 3.4m/s | -49.7°C | 51.8% | 0hPa | 0V | 00:00:00 | 00:00:00 | 00:00:00 | |
| LY3OO-11 | 2026-09-03 11:56:46 | 54.84505 | 24.06997 | 122° | 64km/h | 9409m | 7.4m/s | -48.6°C | 46.8% | 0hPa | 0V | 00:00:00 | 00:00:00 | 00:00:00 | |
| LY3OO-11 | 2026-09-03 11:56:27 | 54.84626 | 24.06503 | 117° | 62km/h | 9290m | 5.3m/s | -47.6°C | 46.9% | 0hPa | 0V | 00:00:00 | 00:00:00 | 00:00:00 | |
| LY3OO-11 | 2026-09-03 11:56:06 | 54.84783 | 24.06032 | 109° | 58km/h | 9170m | 6.4m/s | -46.6°C | 40.1% | 0hPa | 0V | 00:00:00 | 00:00:00 | 00:00:00 | |
| LY3OO-11 | 2026-09-03 11:55:45 | 54.84931 | 24.05542 | 114° | 55km/h | 9052m | 7.4m/s | -45.6°C | 30.1% | 0hPa | 0V | 00:00:00 | 00:00:00 | 00:00:00 | |
| LY3OO-11 | 2026-09-03 11:55:25 | 54.85072 | 24.05175 | 130° | 46km/h | 8925m | 6.3m/s | -44.4°C | 30.5% | 0hPa | 0V | 00:00:00 | 00:00:00 | 00:00:00 | |
| LY3OO-11 | 2026-09-03 11:55:04 | 54.85216 | 24.04782 | 128° | 60km/h | 8810m | 3.5m/s | -43.3°C | 30.6% | 0hPa | 0V | 00:00:00 | 00:00:00 | 00:00:00 | |
| LY3OO-11 | 2026-09-03 11:54:44 | 54.85353 | 24.04411 | 117° | 53km/h | 8700m | 9.1m/s | -42.3°C | 26.8% | 0hPa | 0V | 00:00:00 | 00:00:00 | 00:00:00 | |
| LY3OO-11 | 2026-09-03 11:54:23 | 54.85531 | 24.04066 | 135° | 37km/h | 8565m | 5.1m/s | -41.1°C | 24.4% | 0hPa | 0V | 00:00:00 | 00:00:00 | 00:00:00 | |
| LY3OO-11 | 2026-09-03 11:54:02 | 54.85708 | 24.03725 | 126° | 46km/h | 8447m | 5.5m/s | -39.9°C | 19.4% | 0hPa | 0V | 00:00:00 | 00:00:00 | 00:00:00 | |
| LY3OO-11 | 2026-09-03 11:53:42 | 54.85847 | 24.03388 | 138° | 35km/h | 8340m | 7.5m/s | -38.9°C | 16.6% | 0hPa | 0V | 00:00:00 | 00:00:00 | 00:00:00 | |
| LY3OO-11 | 2026-09-03 11:53:21 | 54.86000 | 24.03126 | 131° | 42km/h | 8227m | 4.0m/s | -37.9°C | 15.3% | 0hPa | 0V | 00:00:00 | 00:00:00 | 00:00:00 | |
| LY3OO-11 | 2026-09-03 11:53:01 | 54.86160 | 24.02819 | 147° | 55km/h | 8131m | 10.2m/s | -37.1°C | 13.2% | 0hPa | 0V | 00:00:00 | 00:00:00 | 00:00:00 | |
| LY3OO-11 | 2026-09-03 11:52:40 | 54.86329 | 24.02534 | 150° | 44km/h | 8010m | 5.8m/s | -36.0°C | 11.9% | 0hPa | 0V | 00:00:00 | 00:00:00 | 00:00:00 | |
| LY3OO-11 | 2026-09-03 11:52:20 | 54.86498 | 24.02291 | 137° | 31km/h | 7894m | 5.1m/s | -35.1°C | 10.9% | 0hPa | 0V | 00:00:00 | 00:00:00 | 00:00:00 | |
| LY3OO-11 | 2026-09-03 11:52:00 | 54.86647 | 24.02063 | 151° | 44km/h | 7771m | 8.5m/s | -34.1°C | 9.8% | 0hPa | 0V | 00:00:00 | 00:00:00 | 00:00:00 | |
| LY3OO-11 | 2026-09-03 11:51:39 | 54.86768 | 24.01860 | 136° | 22km/h | 7648m | 5.2m/s | -33.1°C | 9.3% | 0hPa | 0V | 00:00:00 | 00:00:00 | 00:00:00 | |
| LY3OO-11 | 2026-09-03 11:51:17 | 54.86939 | 24.01702 | 135° | 49km/h | 7532m | 4.8m/s | -32.1°C | 9.0% | 0hPa | 0V | 00:00:00 | 00:00:00 | 00:00:00 | |
| LY3OO-11 | 2026-09-03 11:50:57 | 54.87077 | 24.01463 | 136° | 44km/h | 7407m | 4.5m/s | -31.4°C | 9.0% | 0hPa | 0V | 00:00:00 | 00:00:00 | 00:00:00 | |
| LY3OO-11 | 2026-09-03 11:50:36 | 54.87225 | 24.01269 | 150° | 35km/h | 7338m | 7.0m/s | -30.7°C | 8.8% | 0hPa | 0V | 00:00:00 | 00:00:00 | 00:00:00 | |
| LY3OO-11 | 2026-09-03 11:50:15 | 54.87329 | 24.01080 | 134° | 33km/h | 7218m | 7.1m/s | -30.1°C | 7.5% | 0hPa | 0V | 00:00:00 | 00:00:00 | 00:00:00 | |
| LY3OO-11 | 2026-09-03 11:49:55 | 54.87401 | 24.00875 | 113° | 26km/h | 7090m | 5.9m/s | -29.0°C | 7.7% | 0hPa | 0V | 00:00:00 | 00:00:00 | 00:00:00 | |
| LY3OO-11 | 2026-09-03 11:49:34 | 54.87470 | 24.00643 | 126° | 42km/h | 6971m | 9.1m/s | -28.1°C | 8.0% | 0hPa | 0V | 00:00:00 | 00:00:00 | 00:00:00 | |
| LY3OO-11 | 2026-09-03 11:49:13 | 54.87562 | 24.00320 | 105° | 44km/h | 6841m | 7.9m/s | -27.3°C | 7.2% | 0hPa | 0V | 00:00:00 | 00:00:00 | 00:00:00 | |
| LY3OO-11 | 2026-09-03 11:48:54 | 54.87688 | 24.00000 | 122° | 33km/h | 6725m | 6.9m/s | -26.6°C | 9.7% | 0hPa | 0V | 00:00:00 | 00:00:00 | 00:00:00 | |
| LY3OO-11 | 2026-09-03 11:48:33 | 54.87754 | 23.99694 | 107° | 44km/h | 6608m | 5.4m/s | -25.6°C | 12.7% | 0hPa | 0V | 00:00:00 | 00:00:00 | 00:00:00 | |
| LY3OO-11 | 2026-09-03 11:48:12 | 54.87823 | 23.99405 | 117° | 38km/h | 6487m | 6.1m/s | -24.7°C | 18.5% | 0hPa | 0V | 00:00:00 | 00:00:00 | 00:00:00 | |
| LY3OO-11 | 2026-09-03 11:47:52 | 54.87892 | 23.99064 | 105° | 53km/h | 6366m | 7.1m/s | -24.1°C | 30.7% | 0hPa | 0V | 00:00:00 | 00:00:00 | 00:00:00 | |
| LY3OO-11 | 2026-09-03 11:47:32 | 54.87972 | 23.98662 | 105° | 44km/h | 6258m | 8.3m/s | -23.4°C | 41.4% | 0hPa | 0V | 00:00:00 | 00:00:00 | 00:00:00 | |
| LY3OO-11 | 2026-09-03 11:47:12 | 54.88031 | 23.98308 | 115° | 37km/h | 6132m | 5.8m/s | -22.3°C | 44.9% | 0hPa | 0V | 00:00:00 | 00:00:00 | 00:00:00 | |
| LY3OO-11 | 2026-09-03 11:46:51 | 54.88076 | 23.97969 | 113° | 31km/h | 6007m | 7.2m/s | -21.3°C | 45.4% | 0hPa | 0V | 00:00:00 | 00:00:00 | 00:00:00 | |
| LY3OO-11 | 2026-09-03 11:46:31 | 54.88108 | 23.97643 | 87° | 35km/h | 5886m | 7.6m/s | -20.1°C | 42.7% | 0hPa | 0V | 00:00:00 | 00:00:00 | 00:00:00 | |
| LY3OO-11 | 2026-09-03 11:46:11 | 54.88123 | 23.97340 | 85° | 27km/h | 5755m | 6.1m/s | -19.0°C | 34.3% | 0hPa | 0V | 00:00:00 | 00:00:00 | 00:00:00 | |
| LY3OO-11 | 2026-09-03 11:45:49 | 54.88156 | 23.97029 | 101° | 44km/h | 5628m | 7.5m/s | -17.8°C | 28.4% | 0hPa | 0V | 00:00:00 | 00:00:00 | 00:00:00 | |
| LY3OO-11 | 2026-09-03 11:45:30 | 54.88189 | 23.96696 | 102° | 42km/h | 5507m | 5.9m/s | -16.9°C | 14.9% | 0hPa | 0V | 00:00:00 | 00:00:00 | 00:00:00 | |
| LY3OO-11 | 2026-09-03 11:45:08 | 54.88230 | 23.96374 | 108° | 35km/h | 5388m | 8.9m/s | -16.5°C | 43.1% | 0hPa | 0V | 00:00:00 | 00:00:00 | 00:00:00 | |
| LY3OO-11 | 2026-09-03 11:44:47 | 54.88246 | 23.96045 | 90° | 40km/h | 5260m | 6.5m/s | -15.5°C | 47.7% | 0hPa | 0V | 00:00:00 | 00:00:00 | 00:00:00 | |
| LY3OO-11 | 2026-09-03 11:44:27 | 54.88258 | 23.95708 | 102° | 37km/h | 5134m | 7.0m/s | -14.6°C | 49.6% | 0hPa | 0V | 00:00:00 | 00:00:00 | 00:00:00 | |
| LY3OO-11 | 2026-09-03 11:44:05 | 54.88297 | 23.95353 | 99° | 42km/h | 5002m | 6.8m/s | -13.6°C | 50.7% | 0hPa | 0V | 00:00:00 | 00:00:00 | 00:00:00 | |
| LY3OO-11 | 2026-09-03 11:43:45 | 54.88328 | 23.94986 | 110° | 40km/h | 4876m | 8.1m/s | -12.8°C | 60.3% | 0hPa | 0V | 00:00:00 | 00:00:00 | 00:00:00 | |
| LY3OO-11 | 2026-09-03 11:43:23 | 54.88377 | 23.94618 | 97° | 35km/h | 4742m | 6.6m/s | -12.1°C | 66.7% | 0hPa | 0V | 00:00:00 | 00:00:00 | 00:00:00 | |
| LY3OO-11 | 2026-09-03 11:43:04 | 54.88428 | 23.94224 | 103° | 51km/h | 4615m | 6.8m/s | -11.2°C | 70.4% | 0hPa | 0V | 00:00:00 | 00:00:00 | 00:00:00 | |
| LY3OO-11 | 2026-09-03 11:42:43 | 54.88472 | 23.93816 | 99° | 40km/h | 4489m | 6.1m/s | -10.5°C | 75.2% | 0hPa | 0V | 00:00:00 | 00:00:00 | 00:00:00 | |
| LY3OO-11 | 2026-09-03 11:42:23 | 54.88519 | 23.93425 | 114° | 46km/h | 4370m | 7.3m/s | -9.8°C | 61.0% | 0hPa | 0V | 00:00:00 | 00:00:00 | 00:00:00 | |
| LY3OO-11 | 2026-09-03 11:42:02 | 54.88562 | 23.93083 | 102° | 33km/h | 4247m | 7.1m/s | -8.8°C | 58.1% | 0hPa | 0V | 00:00:00 | 00:00:00 | 00:00:00 | |
| LY3OO-11 | 2026-09-03 11:41:41 | 54.88603 | 23.92790 | 111° | 29km/h | 4117m | 7.4m/s | -7.9°C | 55.5% | 0hPa | 0V | 00:00:00 | 00:00:00 | 00:00:00 | |
| LY3OO-11 | 2026-09-03 11:41:19 | 54.88662 | 23.92491 | 107° | 37km/h | 3997m | 7.9m/s | -7.1°C | 60.4% | 0hPa | 0V | 00:00:00 | 00:00:00 | 00:00:00 | |
| LY3OO-11 | 2026-09-03 11:40:59 | 54.88689 | 23.92192 | 103° | 33km/h | 3881m | 8.1m/s | -7.1°C | 81.5% | 0hPa | 0V | 00:00:00 | 00:00:00 | 00:00:00 | |
| LY3OO-11 | 2026-09-03 11:40:39 | 54.88703 | 23.91906 | 97° | 35km/h | 3758m | 6.0m/s | -6.0°C | 82.6% | 0hPa | 0V | 00:00:00 | 00:00:00 | 00:00:00 | |
| LY3OO-11 | 2026-09-03 11:40:18 | 54.88711 | 23.91623 | 94° | 33km/h | 3646m | 6.1m/s | -5.1°C | 76.2% | 0hPa | 0V | 00:00:00 | 00:00:00 | 00:00:00 | |
| LY3OO-11 | 2026-09-03 11:39:58 | 54.88714 | 23.91342 | 103° | 31km/h | 3527m | 6.9m/s | -4.7°C | 64.6% | 0hPa | 0V | 00:00:00 | 00:00:00 | 00:00:00 | |
| LY3OO-11 | 2026-09-03 11:39:37 | 54.88762 | 23.91069 | 95° | 31km/h | 3406m | 6.2m/s | -4.5°C | 90.9% | 0hPa | 0V | 00:00:00 | 00:00:00 | 00:00:00 | |
| LY3OO-11 | 2026-09-03 11:39:18 | 54.88802 | 23.90795 | 93° | 18km/h | 3295m | 6.0m/s | -4.1°C | 93.3% | 0hPa | 0V | 00:00:00 | 00:00:00 | 00:00:00 | |
| LY3OO-11 | 2026-09-03 11:38:57 | 54.88804 | 23.90563 | 91° | 22km/h | 3169m | 5.7m/s | -3.0°C | 88.0% | 0hPa | 0V | 00:00:00 | 00:00:00 | 00:00:00 | |
| LY3OO-11 | 2026-09-03 11:38:36 | 54.88804 | 23.90339 | 99° | 22km/h | 3047m | 6.5m/s | -2.3°C | 87.7% | 0hPa | 0V | 00:00:00 | 00:00:00 | 00:00:00 | |
| LY3OO-11 | 2026-09-03 11:38:14 | 54.88839 | 23.90118 | 103° | 27km/h | 2926m | 7.5m/s | -1.9°C | 91.0% | 0hPa | 0V | 00:00:00 | 00:00:00 | 00:00:00 | |
| LY3OO-11 | 2026-09-03 11:37:54 | 54.88881 | 23.89895 | 95° | 22km/h | 2806m | 5.8m/s | -1.0°C | 89.6% | 0hPa | 0V | 00:00:00 | 00:00:00 | 00:00:00 | |
| LY3OO-11 | 2026-09-03 11:37:33 | 54.88908 | 23.89669 | 96° | 24km/h | 2678m | 6.7m/s | -0.0°C | 84.5% | 0hPa | 0V | 00:00:00 | 00:00:00 | 00:00:00 | |
| LY3OO-11 | 2026-09-03 11:37:12 | 54.88924 | 23.89453 | 102° | 29km/h | 2555m | 7.2m/s | 0.8°C | 83.6% | 0hPa | 0V | 00:00:00 | 00:00:00 | 00:00:00 | |
| LY3OO-11 | 2026-09-03 11:36:53 | 54.88940 | 23.89216 | 99° | 29km/h | 2436m | 5.8m/s | 1.6°C | 81.7% | 0hPa | 0V | 00:00:00 | 00:00:00 | 00:00:00 | |
| LY3OO-11 | 2026-09-03 11:36:32 | 54.88956 | 23.88951 | 102° | 26km/h | 2316m | 5.5m/s | 1.9°C | 80.5% | 0hPa | 0V | 00:00:00 | 00:00:00 | 00:00:00 | |
| LY3OO-11 | 2026-09-03 11:36:11 | 54.88984 | 23.88651 | 93° | 29km/h | 2193m | 6.2m/s | 3.2°C | 0% | 0hPa | 0V | 00:00:00 | 00:00:00 | 00:00:00 | |
| LY3OO-11 | 2026-09-03 11:35:51 | 54.89021 | 23.88370 | 95° | 35km/h | 2027m | 8.6m/s | 3.9°C | 0% | 0hPa | 0V | 00:00:00 | 00:00:00 | 00:00:00 | |
| LY3OO-11 | 2026-09-03 11:35:29 | 54.89005 | 23.88036 | 89° | 37km/h | 1879m | 6.0m/s | 4.7°C | 0% | 0hPa | 0V | 00:00:00 | 00:00:00 | 00:00:00 | |
| LY3OO-11 | 2026-09-03 11:35:08 | 54.88975 | 23.87698 | 101° | 42km/h | 1756m | 6.9m/s | 5.5°C | 0% | 0hPa | 0V | 00:00:00 | 00:00:00 | 00:00:00 | |
| LY3OO-11 | 2026-09-03 11:34:48 | 54.88990 | 23.87351 | 82° | 40km/h | 1650m | 6.6m/s | 6.1°C | 0% | 0hPa | 0V | 00:00:00 | 00:00:00 | 00:00:00 | |
| LY3OO-11 | 2026-09-03 11:34:27 | 54.88977 | 23.87011 | 82° | 33km/h | 1521m | 7.8m/s | 7.2°C | 92.3% | 0hPa | 0V | 00:00:00 | 00:00:00 | 00:00:00 | |
| LY3OO-11 | 2026-09-03 11:34:06 | 54.88940 | 23.86719 | 78° | 35km/h | 1374m | 7.1m/s | 8.4°C | 87.7% | 0hPa | 0V | 00:00:00 | 00:00:00 | 00:00:00 | |
| LY3OO-11 | 2026-09-03 11:33:46 | 54.88905 | 23.86423 | 81° | 35km/h | 1253m | 6.6m/s | 9.3°C | 87.2% | 0hPa | 0V | 00:00:00 | 00:00:00 | 00:00:00 | |
| LY3OO-11 | 2026-09-03 11:33:26 | 54.88852 | 23.86109 | 74° | 33km/h | 1129m | 6.7m/s | 10.4°C | 83.0% | 0hPa | 0V | 00:00:00 | 00:00:00 | 00:00:00 | |
| LY3OO-11 | 2026-09-03 11:33:04 | 54.88798 | 23.85796 | 76° | 38km/h | 1001m | 6.6m/s | 11.6°C | 0% | 0hPa | 0V | 00:00:00 | 00:00:00 | 00:00:00 | |
| LY3OO-11 | 2026-09-03 11:32:44 | 54.88741 | 23.85490 | 76° | 33km/h | 884m | 4.8m/s | 12.6°C | 0% | 0hPa | 0V | 00:00:00 | 00:00:00 | 00:00:00 |